Weather History for KDUX - March, 2013

Change the Weather History Date:

Monday, March 18, 2013

  Actual Average (KBGD) Record (KBGD)
Temperature  
Mean Temperature 43 °F 50 °F  
Max Temperature 56 °F 64 °F 87 °F (2007)
Min Temperature 30 °F 37 °F 12 °F (1965)
Degree Days  
Heating Degree Days 22 15  
Month to date heating degree days 316  
Since 1 July heating degree days 3309  
Cooling Degree Days 0 0  
Month to date cooling degree days 0  
Year to date cooling degree days 0  
Moisture  
Dew Point 21 °F    
Average Humidity 44    
Maximum Humidity 79    
Minimum Humidity 20    
Precipitation  
Precipitation 0.00 in 0.04 in 0.98 in (1999)
Month to date precipitation 0.78  
Year to date precipitation 1.99  
Snow  
Snow 0.00 in - 1.00 in (1965)
Month to date snowfall  
Since 1 July snowfall  
Snow Depth -    
Sea Level Pressure  
Sea Level Pressure 29.92 in    
Wind  
Wind Speed 12 mph (NE)    
Max Wind Speed 23 mph    
Max Gust Speed 32 mph    
Visibility 10 miles    
Events      
T = Trace of Precipitation, MM = Missing Value Source: NWS Daily Summary

Daily Weather History Graph

Daily Weather History Graph

Search for Another Location

Airport or City:

Trip Planner

Search our weather history database for the weather conditions in past years. The results will help you decide how hot, cold, wet, or windy it might be!

Date:

Astronomy

Mar. 18, 2013 Rise Set
Actual Time 7:54 AM CDT 7:58 PM CDT
Civil Twilight 7:28 AM CDT 8:23 PM CDT
Nautical Twilight 6:58 AM CDT 8:53 PM CDT
Astronomical Twilight 6:28 AM CDT 9:23 PM CDT
Moon 12:06 PM CDT (3/18) 1:48 AM CDT (3/18)
Length of Visible Light 12h 55m
Length of Day
12h 04m
Waxing Crescent, 41% of the Moon is Illuminated
Mar 18
Waxing Crescent
Mar 19
First Quarter
Mar 27
Full
Apr 2
Last Quarter
Apr 10
New

Hourly Weather History & Observations

Time (CDT) Temp. Windchill Dew Point Humidity Pressure Visibility Wind Dir Wind Speed Gust Speed Precip Events Conditions
12:15 AM 49.1 °F - 24.8 °F 39% 29.67 in 10.0 mi WNW 12.7 mph - N/A   Clear
12:35 AM 46.4 °F 41.9 °F 28.6 °F 50% 29.68 in 10.0 mi NNW 9.2 mph 19.6 mph N/A   Clear
12:55 AM 44.4 °F 38.6 °F 28.2 °F 53% 29.69 in 10.0 mi WNW 11.5 mph - N/A   Clear
1:15 AM 43.5 °F 37.9 °F 29.1 °F 57% 29.70 in 10.0 mi NW 10.4 mph - N/A   Clear
1:35 AM 43.5 °F 37.1 °F 29.1 °F 57% 29.72 in 10.0 mi NW 12.7 mph - N/A   Clear
1:55 AM 46.6 °F - 28.2 °F 49% 29.73 in 10.0 mi NW 13.8 mph - N/A   Clear
2:15 AM 47.1 °F - 28.4 °F 48% 29.74 in 10.0 mi NW 15.0 mph - N/A   Clear
2:35 AM 46.2 °F 40.1 °F 28.2 °F 50% 29.76 in 10.0 mi NNW 13.8 mph - N/A   Clear
2:55 AM 46.4 °F 39.2 °F 28.4 °F 50% 29.76 in 10.0 mi NNW 18.4 mph - N/A   Clear
3:15 AM 45.9 °F 38.5 °F 28.2 °F 50% 29.78 in 10.0 mi NNW 18.4 mph - N/A   Clear
3:35 AM 45.0 °F 37.9 °F 28.4 °F 52% 29.81 in 10.0 mi NNW 16.1 mph - N/A   Clear
3:55 AM 44.1 °F 35.4 °F 29.3 °F 56% 29.83 in 10.0 mi North 21.9 mph 26.5 mph N/A   Clear
4:15 AM 43.7 °F 34.7 °F 31.5 °F 62% 29.85 in 10.0 mi North 23.0 mph 31.1 mph N/A   Clear
4:35 AM 41.9 °F 32.6 °F 32.2 °F 68% 29.87 in 10.0 mi North 21.9 mph 32.2 mph N/A   Clear
4:55 AM 39.6 °F 30.6 °F 32.5 °F 76% 29.89 in 10.0 mi North 17.3 mph 31.1 mph N/A   Clear
5:15 AM 38.1 °F 28.1 °F 32.0 °F 79% 29.90 in 10.0 mi North 19.6 mph 25.3 mph N/A   Clear
5:35 AM 36.7 °F 26.9 °F 30.7 °F 79% 29.90 in 10.0 mi North 17.3 mph 24.2 mph N/A   Clear
5:55 AM 35.6 °F 25.2 °F 28.0 °F 74% 29.91 in 10.0 mi North 18.4 mph - N/A   Clear
6:15 AM 34.3 °F 25.0 °F 26.4 °F 73% 29.92 in 10.0 mi North 13.8 mph - N/A   Clear
6:35 AM 33.8 °F 24.3 °F 25.3 °F 71% 29.92 in 10.0 mi North 13.8 mph - N/A   Clear
6:55 AM 32.5 °F 23.2 °F 24.3 °F 72% 29.93 in 10.0 mi North 12.7 mph - N/A   Clear
7:15 AM 32.2 °F 22.7 °F 23.4 °F 70% 29.95 in 10.0 mi North 12.7 mph - N/A   Clear
7:35 AM 31.6 °F 22.1 °F 22.8 °F 70% 29.95 in 10.0 mi North 12.7 mph - N/A   Clear
7:55 AM 30.9 °F 21.7 °F 22.1 °F 70% 29.96 in 10.0 mi North 11.5 mph - N/A   Clear
8:15 AM 30.6 °F 21.8 °F 21.7 °F 70% 29.97 in 10.0 mi North 10.4 mph - N/A   Clear
8:35 AM 31.8 °F 28.5 °F 21.9 °F 67% 30.01 in 10.0 mi WSW 3.5 mph - N/A   Clear
8:55 AM 32.9 °F 25.3 °F 22.5 °F 65% 30.00 in 10.0 mi North 9.2 mph - N/A   Clear
9:15 AM 34.3 °F 25.0 °F 23.2 °F 64% 30.01 in 10.0 mi North 13.8 mph - N/A   Clear
9:35 AM 36.3 °F 28.9 °F 23.4 °F 59% 30.01 in 10.0 mi North 10.4 mph - N/A   Clear
9:55 AM 37.6 °F 30.5 °F 21.9 °F 53% 30.03 in 10.0 mi NNE 10.4 mph - N/A   Clear
10:15 AM 39.0 °F 31.4 °F 20.8 °F 48% 30.02 in 10.0 mi NE 12.7 mph - N/A   Clear
10:35 AM 39.9 °F 33.9 °F 19.4 °F 44% 30.03 in 10.0 mi NNE 9.2 mph - N/A   Clear
11:15 AM 42.8 °F 36.2 °F 17.2 °F 36% 30.04 in 10.0 mi NE 12.7 mph 18.4 mph N/A   Clear
11:35 AM 43.5 °F 38.3 °F 16.5 °F 34% 30.04 in 10.0 mi NNE 9.2 mph - N/A   Clear
12:15 PM 45.3 °F 40.6 °F 14.5 °F 29% 30.04 in 10.0 mi NNE 9.2 mph - N/A   Clear
12:35 PM 46.6 °F - 12.7 °F 26% 30.03 in 10.0 mi NNE 10.4 mph 16.1 mph N/A   Clear
12:55 PM 46.4 °F 42.9 °F 12.4 °F 25% 30.03 in 10.0 mi NNE 6.9 mph - N/A   Clear
1:15 PM 47.3 °F - 13.5 °F 26% 30.03 in 10.0 mi East 4.6 mph - N/A   Clear
1:35 PM 47.3 °F - 12.9 °F 25% 30.02 in 10.0 mi NE 9.2 mph - N/A   Clear
1:55 PM 48.9 °F - 13.8 °F 25% 30.02 in 10.0 mi SE 6.9 mph - N/A   Clear
2:15 PM 49.5 °F - 12.9 °F 23% 30.02 in 10.0 mi Calm Calm - N/A   Clear
2:55 PM 51.1 °F - 13.6 °F 23% 30.00 in 10.0 mi ESE 3.5 mph - N/A   Clear
3:15 PM 52.2 °F - 14.7 °F 23% 30.00 in 10.0 mi East 4.6 mph - N/A   Clear
3:35 PM 52.0 °F - 14.5 °F 23% 29.98 in 10.0 mi Calm Calm - N/A   Clear
3:55 PM 53.2 °F - 15.4 °F 22% 29.98 in 10.0 mi ESE 6.9 mph - N/A   Clear
4:15 PM 53.8 °F - 16.3 °F 23% 29.97 in 10.0 mi East 8.1 mph - N/A   Clear
4:35 PM 54.3 °F - 15.6 °F 22% 29.96 in 10.0 mi SSW 8.1 mph 16.1 mph N/A   Clear
4:55 PM 54.7 °F - 16.3 °F 22% 29.96 in 10.0 mi SE 12.7 mph 17.3 mph N/A   Clear
5:15 PM 54.7 °F - 14.7 °F 21% 29.95 in 10.0 mi Calm Calm - N/A   Clear
5:35 PM 55.2 °F - 15.6 °F 21% 29.95 in 10.0 mi SSE 5.8 mph - N/A   Clear
5:55 PM 56.1 °F - 15.3 °F 20% 29.93 in 10.0 mi SSW 10.4 mph - N/A   Clear
6:15 PM 56.3 °F - 15.8 °F 20% 29.93 in 10.0 mi South 13.8 mph - N/A   Clear
6:35 PM 55.4 °F - 15.8 °F 21% 29.93 in 10.0 mi South 8.1 mph 16.1 mph N/A   Clear
6:55 PM 55.2 °F - 16.9 °F 22% 29.92 in 10.0 mi South 11.5 mph 16.1 mph N/A   Clear
7:15 PM 53.6 °F - 18.9 °F 26% 29.91 in 10.0 mi SE 11.5 mph - N/A   Clear
7:35 PM 52.2 °F - 18.9 °F 27% 29.91 in 10.0 mi SE 10.4 mph - N/A   Clear
7:55 PM 49.3 °F - 18.9 °F 30% 29.90 in 10.0 mi ESE 9.2 mph - N/A   Clear
8:15 PM 47.7 °F - 19.0 °F 32% 29.89 in 10.0 mi ESE 10.4 mph - N/A   Clear
8:35 PM 46.2 °F 41.2 °F 19.0 °F 34% 29.89 in 10.0 mi SE 10.4 mph - N/A   Clear
8:55 PM 45.3 °F 40.1 °F 19.4 °F 36% 29.90 in 10.0 mi ESE 10.4 mph - N/A   Clear
9:15 PM 45.5 °F 40.3 °F 19.8 °F 36% 29.90 in 10.0 mi ESE 10.4 mph - N/A   Clear
9:35 PM 44.4 °F 39.5 °F 19.8 °F 37% 29.90 in 10.0 mi ESE 9.2 mph - N/A   Clear
9:55 PM 44.2 °F 38.8 °F 19.9 °F 38% 29.91 in 10.0 mi ESE 10.4 mph - N/A   Clear
10:15 PM 44.6 °F 38.8 °F 20.3 °F 38% 29.92 in 10.0 mi ESE 11.5 mph - N/A   Clear
10:55 PM 42.8 °F 36.6 °F 21.2 °F 42% 29.93 in 10.0 mi SE 11.5 mph - N/A   Clear
11:15 PM 41.9 °F 34.6 °F 21.2 °F 44% 29.93 in 10.0 mi SE 13.8 mph - N/A   Clear
11:35 PM 41.5 °F 34.2 °F 21.6 °F 45% 29.93 in 10.0 mi SE 13.8 mph - N/A   Clear
11:55 PM 41.0 °F 34.3 °F 21.2 °F 45% 29.93 in 10.0 mi SE 11.5 mph - N/A   Clear